Datum;"Wasserstand in cm";"Stationsnummer: 5872802";"Stationsname: Dobbrikow, Hammerbr�cke";"Gew?sser: Pfefferflie�";"Fehlwerte: -777"
"03.04.2024 00:00";33
"03.04.2024 00:15";33
"03.04.2024 00:30";33
"03.04.2024 00:45";33
"03.04.2024 01:00";33
"03.04.2024 01:15";33
"03.04.2024 01:30";33
"03.04.2024 01:45";33
"03.04.2024 02:00";33
"03.04.2024 02:15";33
"03.04.2024 02:30";33
"03.04.2024 02:45";33
"03.04.2024 03:00";33
"03.04.2024 03:15";33
"03.04.2024 03:30";33
"03.04.2024 03:45";33
"03.04.2024 04:00";33
"03.04.2024 04:15";33
"03.04.2024 04:30";33
"03.04.2024 04:45";33
"03.04.2024 05:00";33
"03.04.2024 05:15";33
"03.04.2024 05:30";33
"03.04.2024 05:45";33
"03.04.2024 06:00";33
"03.04.2024 06:15";33
"03.04.2024 06:30";33
"03.04.2024 06:45";33
"03.04.2024 07:00";33
"03.04.2024 07:15";33
"03.04.2024 07:30";33
"03.04.2024 07:45";33
"03.04.2024 08:00";33
"03.04.2024 08:15";33
"03.04.2024 08:30";33
"03.04.2024 08:45";33
"03.04.2024 09:00";33
"03.04.2024 09:15";33
"03.04.2024 09:30";33
"03.04.2024 09:45";33
"03.04.2024 10:00";33
"03.04.2024 10:15";33
"03.04.2024 10:30";33
"03.04.2024 10:45";33
"03.04.2024 11:00";33
"03.04.2024 11:15";33
"03.04.2024 11:30";33
"03.04.2024 11:45";33
"03.04.2024 12:00";33
"03.04.2024 12:15";33
"03.04.2024 12:30";33
"03.04.2024 12:45";34
"03.04.2024 13:00";34
"03.04.2024 13:15";33
"03.04.2024 13:30";33
"03.04.2024 13:45";34
"03.04.2024 14:00";34
"03.04.2024 14:15";34
"03.04.2024 14:30";33
"03.04.2024 14:45";34
"03.04.2024 15:00";34
"03.04.2024 15:15";34
"03.04.2024 15:30";33
"03.04.2024 15:45";33
"03.04.2024 16:00";33
"03.04.2024 16:15";34
"03.04.2024 16:30";34
"03.04.2024 16:45";34
"03.04.2024 17:00";33
"03.04.2024 17:15";34
"03.04.2024 17:30";33
"03.04.2024 17:45";33
"03.04.2024 18:00";33
"03.04.2024 18:15";34
"03.04.2024 18:30";34
"03.04.2024 18:45";33
"03.04.2024 19:00";34
"03.04.2024 19:15";33
"03.04.2024 19:30";33
"03.04.2024 19:45";34
"03.04.2024 20:00";33
"03.04.2024 20:15";33
"03.04.2024 20:30";34
"03.04.2024 20:45";34
"03.04.2024 21:00";33
"03.04.2024 21:15";34
"03.04.2024 21:30";34
"03.04.2024 21:45";34
"03.04.2024 22:00";34
"03.04.2024 22:15";33
"03.04.2024 22:30";34
"03.04.2024 22:45";34
"03.04.2024 23:00";33
"03.04.2024 23:15";33
"03.04.2024 23:30";33
"03.04.2024 23:45";33
"04.04.2024 00:00";33
"04.04.2024 00:15";33
"04.04.2024 00:30";33
"04.04.2024 00:45";33
"04.04.2024 01:00";33
"04.04.2024 01:15";33
"04.04.2024 01:30";33
"04.04.2024 01:45";33
"04.04.2024 02:00";33
"04.04.2024 02:15";33
"04.04.2024 02:30";33
"04.04.2024 02:45";33
"04.04.2024 03:00";33
"04.04.2024 03:15";33
"04.04.2024 03:30";33
"04.04.2024 03:45";32
"04.04.2024 04:00";32
"04.04.2024 04:15";32
"04.04.2024 04:30";32
"04.04.2024 04:45";32
"04.04.2024 05:00";32
"04.04.2024 05:15";32
"04.04.2024 05:30";32
"04.04.2024 05:45";32
"04.04.2024 06:00";32
"04.04.2024 06:15";32
"04.04.2024 06:30";32
"04.04.2024 06:45";32
"04.04.2024 07:00";32
"04.04.2024 07:15";32
"04.04.2024 07:30";32
"04.04.2024 07:45";32
"04.04.2024 08:00";32
"04.04.2024 08:15";32
"04.04.2024 08:30";32
"04.04.2024 08:45";32
"04.04.2024 09:00";32
"04.04.2024 09:15";32
"04.04.2024 09:30";32
"04.04.2024 09:45";32
"04.04.2024 10:00";32
"04.04.2024 10:15";32
"04.04.2024 10:30";32
"04.04.2024 10:45";32
"04.04.2024 11:00";32
"04.04.2024 11:15";33
"04.04.2024 11:30";33
"04.04.2024 11:45";32
"04.04.2024 12:00";32
"04.04.2024 12:15";32
"04.04.2024 12:30";32
"04.04.2024 12:45";33
"04.04.2024 13:00";32
"04.04.2024 13:15";33
"04.04.2024 13:30";32
"04.04.2024 13:45";32
"04.04.2024 14:00";33
"04.04.2024 14:15";33
"04.04.2024 14:30";33
"04.04.2024 14:45";33
"04.04.2024 15:00";33
"04.04.2024 15:15";33
"04.04.2024 15:30";33
"04.04.2024 15:45";33
"04.04.2024 16:00";33
"04.04.2024 16:15";33
"04.04.2024 16:30";33
"04.04.2024 16:45";33
"04.04.2024 17:00";33
"04.04.2024 17:15";33
"04.04.2024 17:30";33
"04.04.2024 17:45";33
"04.04.2024 18:00";33
"04.04.2024 18:15";33
"04.04.2024 18:30";33
"04.04.2024 18:45";33
"04.04.2024 19:00";33
"04.04.2024 19:15";33
"04.04.2024 19:30";33
"04.04.2024 19:45";33
"04.04.2024 20:00";33
"04.04.2024 20:15";33
"04.04.2024 20:30";33
"04.04.2024 20:45";33
"04.04.2024 21:00";33
"04.04.2024 21:15";33
"04.04.2024 21:30";33
"04.04.2024 21:45";33
"04.04.2024 22:00";33
"04.04.2024 22:15";33
"04.04.2024 22:30";33
"04.04.2024 22:45";33
"04.04.2024 23:00";33
"04.04.2024 23:15";33
"04.04.2024 23:30";33
"04.04.2024 23:45";33
"05.04.2024 00:00";33
"05.04.2024 00:15";33
"05.04.2024 00:30";33
"05.04.2024 00:45";33
"05.04.2024 01:00";33
"05.04.2024 01:15";33
"05.04.2024 01:30";33
"05.04.2024 01:45";33
"05.04.2024 02:00";33
"05.04.2024 02:15";33
"05.04.2024 02:30";33
"05.04.2024 02:45";33
"05.04.2024 03:00";33
"05.04.2024 03:15";33
"05.04.2024 03:30";33
"05.04.2024 03:45";33
"05.04.2024 04:00";33
"05.04.2024 04:15";33
"05.04.2024 04:30";33
"05.04.2024 04:45";33
"05.04.2024 05:00";33
"05.04.2024 05:15";33
"05.04.2024 05:30";33
"05.04.2024 05:45";33
"05.04.2024 06:00";33
"05.04.2024 06:15";33
"05.04.2024 06:30";33
"05.04.2024 06:45";33
"05.04.2024 07:00";33
"05.04.2024 07:15";33
"05.04.2024 07:30";33
"05.04.2024 07:45";33
"05.04.2024 08:00";33
"05.04.2024 08:15";33
"05.04.2024 08:30";33
"05.04.2024 08:45";33
"05.04.2024 09:00";33
"05.04.2024 09:15";33
"05.04.2024 09:30";33
"05.04.2024 09:45";33
"05.04.2024 10:00";34
"05.04.2024 10:15";33
"05.04.2024 10:30";33
"05.04.2024 10:45";34
"05.04.2024 11:00";33
"05.04.2024 11:15";34
"05.04.2024 11:30";33
"05.04.2024 11:45";34
"05.04.2024 12:00";34
"05.04.2024 12:15";34
"05.04.2024 12:30";34
"05.04.2024 12:45";34
"05.04.2024 13:00";34
"05.04.2024 13:15";34
"05.04.2024 13:30";34
"05.04.2024 13:45";34
"05.04.2024 14:00";34
"05.04.2024 14:15";34
"05.04.2024 14:30";34
"05.04.2024 14:45";34
"05.04.2024 15:00";34
"05.04.2024 15:15";34
"05.04.2024 15:30";34
"05.04.2024 15:45";34
"05.04.2024 16:00";34
"05.04.2024 16:15";34
"05.04.2024 16:30";34
"05.04.2024 16:45";34
"05.04.2024 17:00";34
"05.04.2024 17:15";34
"05.04.2024 17:30";34
"05.04.2024 17:45";34
"05.04.2024 18:00";33
"05.04.2024 18:15";34
"05.04.2024 18:30";34
"05.04.2024 18:45";34
"05.04.2024 19:00";34
"05.04.2024 19:15";34
"05.04.2024 19:30";33
"05.04.2024 19:45";34
"05.04.2024 20:00";34
"05.04.2024 20:15";34
"05.04.2024 20:30";34
"05.04.2024 20:45";34
"05.04.2024 21:00";34
"05.04.2024 21:15";34
"05.04.2024 21:30";34
"05.04.2024 21:45";34
"05.04.2024 22:00";34
"05.04.2024 22:15";34
"05.04.2024 22:30";34
"05.04.2024 22:45";34
"05.04.2024 23:00";34
"05.04.2024 23:15";34
"05.04.2024 23:30";34
"05.04.2024 23:45";34
"06.04.2024 00:00";34
"06.04.2024 00:15";34
"06.04.2024 00:30";34
"06.04.2024 00:45";34
"06.04.2024 01:00";34
"06.04.2024 01:15";34
"06.04.2024 01:30";34
"06.04.2024 01:45";34
"06.04.2024 02:00";34
"06.04.2024 02:15";34
"06.04.2024 02:30";34
"06.04.2024 02:45";34
"06.04.2024 03:00";34
"06.04.2024 03:15";34
"06.04.2024 03:30";34
"06.04.2024 03:45";34
"06.04.2024 04:00";34
"06.04.2024 04:15";34
"06.04.2024 04:30";34
"06.04.2024 04:45";34
"06.04.2024 05:00";34
"06.04.2024 05:15";34
"06.04.2024 05:30";34
"06.04.2024 05:45";34
"06.04.2024 06:00";34
"06.04.2024 06:15";34
"06.04.2024 06:30";34
"06.04.2024 06:45";34
"06.04.2024 07:00";34
"06.04.2024 07:15";34
"06.04.2024 07:30";34
"06.04.2024 07:45";34
"06.04.2024 08:00";34
"06.04.2024 08:15";34
"06.04.2024 08:30";34
"06.04.2024 08:45";34
"06.04.2024 09:00";35
"06.04.2024 09:15";34
"06.04.2024 09:30";35
"06.04.2024 09:45";35
"06.04.2024 10:00";35
"06.04.2024 10:15";35
"06.04.2024 10:30";35
"06.04.2024 10:45";35
"06.04.2024 11:00";35
"06.04.2024 11:15";35
"06.04.2024 11:30";35
"06.04.2024 11:45";35
"06.04.2024 12:00";35
"06.04.2024 12:15";35
"06.04.2024 12:30";35
"06.04.2024 12:45";35
"06.04.2024 13:00";35
"06.04.2024 13:15";35
"06.04.2024 13:30";35
"06.04.2024 13:45";35
"06.04.2024 14:00";35
"06.04.2024 14:15";35
"06.04.2024 14:30";35
"06.04.2024 14:45";36
"06.04.2024 15:00";35
"06.04.2024 15:15";35
"06.04.2024 15:30";35
"06.04.2024 15:45";35
"06.04.2024 16:00";36
"06.04.2024 16:15";36
"06.04.2024 16:30";35
"06.04.2024 16:45";36
"06.04.2024 17:00";35
"06.04.2024 17:15";35
"06.04.2024 17:30";35
"06.04.2024 17:45";35
"06.04.2024 18:00";35
"06.04.2024 18:15";35
"06.04.2024 18:30";35
"06.04.2024 18:45";35
"06.04.2024 19:00";35
"06.04.2024 19:15";35
"06.04.2024 19:30";35
"06.04.2024 19:45";35
"06.04.2024 20:00";35
"06.04.2024 20:15";35
"06.04.2024 20:30";35
"06.04.2024 20:45";35
"06.04.2024 21:00";35
"06.04.2024 21:15";35
"06.04.2024 21:30";35
"06.04.2024 21:45";35
"06.04.2024 22:00";35
"06.04.2024 22:15";35
"06.04.2024 22:30";35
"06.04.2024 22:45";35
"06.04.2024 23:00";35
"06.04.2024 23:15";34
"06.04.2024 23:30";35
"06.04.2024 23:45";35
"07.04.2024 00:00";34
"07.04.2024 00:15";35
"07.04.2024 00:30";34
"07.04.2024 00:45";35
"07.04.2024 01:00";34
"07.04.2024 01:15";34
"07.04.2024 01:30";34
"07.04.2024 01:45";34
"07.04.2024 02:00";34
"07.04.2024 02:15";34
"07.04.2024 02:30";34
"07.04.2024 02:45";34
"07.04.2024 03:00";34
"07.04.2024 03:15";34
"07.04.2024 03:30";34
"07.04.2024 03:45";34
"07.04.2024 04:00";34
"07.04.2024 04:15";34
"07.04.2024 04:30";34
"07.04.2024 04:45";33
"07.04.2024 05:00";33
"07.04.2024 05:15";34
"07.04.2024 05:30";33
"07.04.2024 05:45";33
"07.04.2024 06:00";34
"07.04.2024 06:15";34
"07.04.2024 06:30";34
"07.04.2024 06:45";33
"07.04.2024 07:00";33
"07.04.2024 07:15";33
"07.04.2024 07:30";33
"07.04.2024 07:45";33
"07.04.2024 08:00";33
"07.04.2024 08:15";33
"07.04.2024 08:30";34
"07.04.2024 08:45";34
"07.04.2024 09:00";33
"07.04.2024 09:15";33
"07.04.2024 09:30";34
"07.04.2024 09:45";34
"07.04.2024 10:00";34
"07.04.2024 10:15";34
"07.04.2024 10:30";34
"07.04.2024 10:45";34
"07.04.2024 11:00";34
"07.04.2024 11:15";34
"07.04.2024 11:30";34
"07.04.2024 11:45";34
"07.04.2024 12:00";34
"07.04.2024 12:15";34
"07.04.2024 12:30";34
"07.04.2024 12:45";34
"07.04.2024 13:00";34
"07.04.2024 13:15";34
"07.04.2024 13:30";34
"07.04.2024 13:45";34
"07.04.2024 14:00";34
"07.04.2024 14:15";34
"07.04.2024 14:30";34
"07.04.2024 14:45";33
"07.04.2024 15:00";34
"07.04.2024 15:15";34
"07.04.2024 15:30";34
"07.04.2024 15:45";34
"07.04.2024 16:00";34
"07.04.2024 16:15";33
"07.04.2024 16:30";34
"07.04.2024 16:45";34
"07.04.2024 17:00";33
"07.04.2024 17:15";33
"07.04.2024 17:30";34
"07.04.2024 17:45";33
"07.04.2024 18:00";34
"07.04.2024 18:15";33
"07.04.2024 18:30";33
"07.04.2024 18:45";33
"07.04.2024 19:00";33
"07.04.2024 19:15";33
"07.04.2024 19:30";33
"07.04.2024 19:45";33
"07.04.2024 20:00";33
"07.04.2024 20:15";33
"07.04.2024 20:30";33
"07.04.2024 20:45";33
"07.04.2024 21:00";33
"07.04.2024 21:15";33
"07.04.2024 21:30";33
"07.04.2024 21:45";33
"07.04.2024 22:00";33
"07.04.2024 22:15";33
"07.04.2024 22:30";33
"07.04.2024 22:45";33
"07.04.2024 23:00";33
"07.04.2024 23:15";33
"07.04.2024 23:30";33
"07.04.2024 23:45";33
"08.04.2024 00:00";33
"08.04.2024 00:15";33
"08.04.2024 00:30";33
"08.04.2024 00:45";33
"08.04.2024 01:00";33
"08.04.2024 01:15";33
"08.04.2024 01:30";33
"08.04.2024 01:45";33
"08.04.2024 02:00";33
"08.04.2024 02:15";33
"08.04.2024 02:30";33
"08.04.2024 02:45";33
"08.04.2024 03:00";33
"08.04.2024 03:15";33
"08.04.2024 03:30";33
"08.04.2024 03:45";33
"08.04.2024 04:00";33
"08.04.2024 04:15";33
"08.04.2024 04:30";33
"08.04.2024 04:45";33
"08.04.2024 05:00";33
"08.04.2024 05:15";33
"08.04.2024 05:30";33
"08.04.2024 05:45";33
"08.04.2024 06:00";33
"08.04.2024 06:15";33
"08.04.2024 06:30";33
"08.04.2024 06:45";33
"08.04.2024 07:00";33
"08.04.2024 07:15";33
"08.04.2024 07:30";33
"08.04.2024 07:45";33
"08.04.2024 08:00";33
"08.04.2024 08:15";33
"08.04.2024 08:30";33
"08.04.2024 08:45";33
"08.04.2024 09:00";33
"08.04.2024 09:15";33
"08.04.2024 09:30";33
"08.04.2024 09:45";33
"08.04.2024 10:00";33
"08.04.2024 10:15";33
"08.04.2024 10:30";33
"08.04.2024 10:45";33
"08.04.2024 11:00";33
"08.04.2024 11:15";33
"08.04.2024 11:30";33
"08.04.2024 11:45";33
"08.04.2024 12:00";33
"08.04.2024 12:15";33
"08.04.2024 12:30";33
"08.04.2024 12:45";33
"08.04.2024 13:00";33
"08.04.2024 13:15";33
"08.04.2024 13:30";33
"08.04.2024 13:45";33
"08.04.2024 14:00";33
"08.04.2024 14:15";33
"08.04.2024 14:30";33
"08.04.2024 14:45";33
"08.04.2024 15:00";33
"08.04.2024 15:15";33
"08.04.2024 15:30";33
"08.04.2024 15:45";33
"08.04.2024 16:00";33
"08.04.2024 16:15";33
"08.04.2024 16:30";33
"08.04.2024 16:45";33
"08.04.2024 17:00";33
"08.04.2024 17:15";33
"08.04.2024 17:30";33
"08.04.2024 17:45";33
"08.04.2024 18:00";33
"08.04.2024 18:15";33
"08.04.2024 18:30";33
"08.04.2024 18:45";33
"08.04.2024 19:00";33
"08.04.2024 19:15";33
"08.04.2024 19:30";33
"08.04.2024 19:45";33
"08.04.2024 20:00";33
"08.04.2024 20:15";33
"08.04.2024 20:30";33
"08.04.2024 20:45";33
"08.04.2024 21:00";33
"08.04.2024 21:15";33
"08.04.2024 21:30";33
"08.04.2024 21:45";33
"08.04.2024 22:00";33
"08.04.2024 22:15";33
"08.04.2024 22:30";33
"08.04.2024 22:45";33
"08.04.2024 23:00";33
"08.04.2024 23:15";33
"08.04.2024 23:30";33
"08.04.2024 23:45";33
"09.04.2024 00:00";33
"09.04.2024 00:15";33
"09.04.2024 00:30";33
"09.04.2024 00:45";32
"09.04.2024 01:00";33
"09.04.2024 01:15";33
"09.04.2024 01:30";33
"09.04.2024 01:45";33
"09.04.2024 02:00";33
"09.04.2024 02:15";33
"09.04.2024 02:30";33
"09.04.2024 02:45";33
"09.04.2024 03:00";33
"09.04.2024 03:15";33
"09.04.2024 03:30";33
"09.04.2024 03:45";33
"09.04.2024 04:00";33
"09.04.2024 04:15";33
"09.04.2024 04:30";33
"09.04.2024 04:45";33
"09.04.2024 05:00";33
"09.04.2024 05:15";33
"09.04.2024 05:30";33
"09.04.2024 05:45";33
"09.04.2024 06:00";32
"09.04.2024 06:15";33
"09.04.2024 06:30";32
"09.04.2024 06:45";33
"09.04.2024 07:00";33
"09.04.2024 07:15";33
"09.04.2024 07:30";33
"09.04.2024 07:45";33
"09.04.2024 08:00";33
"09.04.2024 08:15";33
"09.04.2024 08:30";33
"09.04.2024 08:45";33
"09.04.2024 09:00";33
"09.04.2024 09:15";33
"09.04.2024 09:30";33
"09.04.2024 09:45";33
"09.04.2024 10:00";33
"09.04.2024 10:15";33
"09.04.2024 10:30";33
"09.04.2024 10:45";33
"09.04.2024 11:00";33
"09.04.2024 11:15";33
"09.04.2024 11:30";33
"09.04.2024 11:45";33
"09.04.2024 12:00";33
"09.04.2024 12:15";33
"09.04.2024 12:30";33
"09.04.2024 12:45";33
"09.04.2024 13:00";33
"09.04.2024 13:15";33
"09.04.2024 13:30";33
"09.04.2024 13:45";33
"09.04.2024 14:00";33
"09.04.2024 14:15";33
"09.04.2024 14:30";33
"09.04.2024 14:45";33
"09.04.2024 15:00";33
"09.04.2024 15:15";33
"09.04.2024 15:30";33
"09.04.2024 15:45";33
"09.04.2024 16:00";33
"09.04.2024 16:15";33
"09.04.2024 16:30";33
"09.04.2024 16:45";33
"09.04.2024 17:00";32
"09.04.2024 17:15";33
"09.04.2024 17:30";33
"09.04.2024 17:45";33
"09.04.2024 18:00";33
"09.04.2024 18:15";33
"09.04.2024 18:30";32
"09.04.2024 18:45";33
"09.04.2024 19:00";33
"09.04.2024 19:15";32
"09.04.2024 19:30";32
"09.04.2024 19:45";32
"09.04.2024 20:00";32
"09.04.2024 20:15";32
"09.04.2024 20:30";32
"09.04.2024 20:45";32
"09.04.2024 21:00";32
"09.04.2024 21:15";32
"09.04.2024 21:30";32
"09.04.2024 21:45";32
"09.04.2024 22:00";32
"09.04.2024 22:15";32
"09.04.2024 22:30";32
"09.04.2024 22:45";32
"09.04.2024 23:00";32
"09.04.2024 23:15";32
"09.04.2024 23:30";32
"09.04.2024 23:45";32
"10.04.2024 00:00";32
"10.04.2024 00:15";32
"10.04.2024 00:30";32
"10.04.2024 00:45";32
"10.04.2024 01:00";32
"10.04.2024 01:15";32
"10.04.2024 01:30";32
"10.04.2024 01:45";32
"10.04.2024 02:00";32
"10.04.2024 02:15";32
"10.04.2024 02:30";32
"10.04.2024 02:45";32
"10.04.2024 03:00";31
"10.04.2024 03:15";32
"10.04.2024 03:30";32
"10.04.2024 03:45";31
"10.04.2024 04:00";31
"10.04.2024 04:15";32
"10.04.2024 04:30";32
"10.04.2024 04:45";32
"10.04.2024 05:00";32
"10.04.2024 05:15";32
"10.04.2024 05:30";32
"10.04.2024 05:45";31
"10.04.2024 06:00";31
"10.04.2024 06:15";31
"10.04.2024 06:30";31
"10.04.2024 06:45";31
"10.04.2024 07:00";32
"10.04.2024 07:15";31
"10.04.2024 07:30";31
"10.04.2024 07:45";31
"10.04.2024 08:00";31
"10.04.2024 08:15";31
"10.04.2024 08:30";31
"10.04.2024 08:45";31
"10.04.2024 09:00";31
"10.04.2024 09:15";32
"10.04.2024 09:30";31
"10.04.2024 09:45";31
"10.04.2024 10:00";31
"10.04.2024 10:15";32
"10.04.2024 10:30";31
"10.04.2024 10:45";31
"10.04.2024 11:00";31
"10.04.2024 11:15";31
"10.04.2024 11:30";32
"10.04.2024 11:45";31
"10.04.2024 12:00";31
"10.04.2024 12:15";31
"10.04.2024 12:30";31
"10.04.2024 12:45";31
"10.04.2024 13:00";32
"10.04.2024 13:15";31
"10.04.2024 13:30";31
"10.04.2024 13:45";31
"10.04.2024 14:00";31
"10.04.2024 14:15";31
"10.04.2024 14:30";31
"10.04.2024 14:45";31
"10.04.2024 15:00";31
"10.04.2024 15:15";31
"10.04.2024 15:30";31
"10.04.2024 15:45";31
"10.04.2024 16:00";31
"10.04.2024 16:15";31
"10.04.2024 16:30";31
"10.04.2024 16:45";31
"10.04.2024 17:00";31
"10.04.2024 17:15";31
"10.04.2024 17:30";31
"10.04.2024 17:45";31
"10.04.2024 18:00";31
"10.04.2024 18:15";31
"10.04.2024 18:30";31
"10.04.2024 18:45";31
"10.04.2024 19:00";31
"10.04.2024 19:15";31
"10.04.2024 19:30";31
"10.04.2024 19:45";31
"10.04.2024 20:00";31
"10.04.2024 20:15";31
"10.04.2024 20:30";31
"10.04.2024 20:45";31
"10.04.2024 21:00";31
"10.04.2024 21:15";31
"10.04.2024 21:30";31
"10.04.2024 21:45";31
"10.04.2024 22:00";31
"10.04.2024 22:15";31
"10.04.2024 22:30";31
"10.04.2024 22:45";31
"10.04.2024 23:00";31
"10.04.2024 23:15";31
"10.04.2024 23:30";31
"10.04.2024 23:45";31
"11.04.2024 00:00";31
"11.04.2024 00:15";31
"11.04.2024 00:30";31
"11.04.2024 00:45";31
"11.04.2024 01:00";30
"11.04.2024 01:15";31
"11.04.2024 01:30";30
"11.04.2024 01:45";30
"11.04.2024 02:00";30
"11.04.2024 02:15";30
"11.04.2024 02:30";30
"11.04.2024 02:45";30
"11.04.2024 03:00";30
"11.04.2024 03:15";30
"11.04.2024 03:30";30
"11.04.2024 03:45";30
"11.04.2024 04:00";30
"11.04.2024 04:15";30
"11.04.2024 04:30";30
"11.04.2024 04:45";30
"11.04.2024 05:00";30
"11.04.2024 05:15";30
"11.04.2024 05:30";30
"11.04.2024 05:45";30
"11.04.2024 06:00";30
"11.04.2024 06:15";30
"11.04.2024 06:30";30
"11.04.2024 06:45";30
"11.04.2024 07:00";30
"11.04.2024 07:15";30
"11.04.2024 07:30";30
"11.04.2024 07:45";30
"11.04.2024 08:00";30
"11.04.2024 08:15";30
"11.04.2024 08:30";30
"11.04.2024 08:45";30
"11.04.2024 09:00";30
"11.04.2024 09:15";31
"11.04.2024 09:30";30
"11.04.2024 09:45";30
"11.04.2024 10:00";30
"11.04.2024 10:15";30
"11.04.2024 10:30";30
"11.04.2024 10:45";30
"11.04.2024 11:00";31
"11.04.2024 11:15";31
"11.04.2024 11:30";30
"11.04.2024 11:45";30
"11.04.2024 12:00";31
"11.04.2024 12:15";30
"11.04.2024 12:30";30
"11.04.2024 12:45";31
"11.04.2024 13:00";30
"11.04.2024 13:15";30
"11.04.2024 13:30";31
"11.04.2024 13:45";31
"11.04.2024 14:00";31
"11.04.2024 14:15";31
"11.04.2024 14:30";31
"11.04.2024 14:45";31
"11.04.2024 15:00";31
"11.04.2024 15:15";31
"11.04.2024 15:30";31
"11.04.2024 15:45";30
"11.04.2024 16:00";30
"11.04.2024 16:15";30
"11.04.2024 16:30";30
"11.04.2024 16:45";30
"11.04.2024 17:00";30
"11.04.2024 17:15";30
"11.04.2024 17:30";30
"11.04.2024 17:45";30
"11.04.2024 18:00";30
"11.04.2024 18:15";30
"11.04.2024 18:30";30
"11.04.2024 18:45";30
"11.04.2024 19:00";30
"11.04.2024 19:15";30
"11.04.2024 19:30";30
"11.04.2024 19:45";30
"11.04.2024 20:00";30
"11.04.2024 20:15";30
"11.04.2024 20:30";30
"11.04.2024 20:45";30
"11.04.2024 21:00";30
"11.04.2024 21:15";30
"11.04.2024 21:30";30
"11.04.2024 21:45";30
"11.04.2024 22:00";30
"11.04.2024 22:15";30
"11.04.2024 22:30";30
"11.04.2024 22:45";30
"11.04.2024 23:00";30
"11.04.2024 23:15";30
"11.04.2024 23:30";30
"11.04.2024 23:45";30
"12.04.2024 00:00";30
"12.04.2024 00:15";30
"12.04.2024 00:30";30
"12.04.2024 00:45";30
"12.04.2024 01:00";30
"12.04.2024 01:15";30
"12.04.2024 01:30";30
"12.04.2024 01:45";30
"12.04.2024 02:00";30
"12.04.2024 02:15";30
"12.04.2024 02:30";30
"12.04.2024 02:45";30
"12.04.2024 03:00";30
"12.04.2024 03:15";30
"12.04.2024 03:30";30
"12.04.2024 03:45";30
"12.04.2024 04:00";30
"12.04.2024 04:15";29
"12.04.2024 04:30";30
"12.04.2024 04:45";30
"12.04.2024 05:00";30
"12.04.2024 05:15";30
"12.04.2024 05:30";30
"12.04.2024 05:45";30
"12.04.2024 06:00";30
"12.04.2024 06:15";30
"12.04.2024 06:30";30
"12.04.2024 06:45";30
"12.04.2024 07:00";30
"12.04.2024 07:15";30
"12.04.2024 07:30";30
"12.04.2024 07:45";30
"12.04.2024 08:00";30
"12.04.2024 08:15";30
"12.04.2024 08:30";30
"12.04.2024 08:45";30
"12.04.2024 09:00";30
"12.04.2024 09:15";30
"12.04.2024 09:30";30
"12.04.2024 09:45";30
"12.04.2024 10:00";30
"12.04.2024 10:15";30
"12.04.2024 10:30";30
"12.04.2024 10:45";30
"12.04.2024 11:00";30
"12.04.2024 11:15";30
"12.04.2024 11:30";30
"12.04.2024 11:45";30
"12.04.2024 12:00";30
"12.04.2024 12:15";30
"12.04.2024 12:30";30
"12.04.2024 12:45";30
"12.04.2024 13:00";30
"12.04.2024 13:15";30
"12.04.2024 13:30";30
"12.04.2024 13:45";30
"12.04.2024 14:00";30
"12.04.2024 14:15";30
"12.04.2024 14:30";30
"12.04.2024 14:45";30
"12.04.2024 15:00";30
"12.04.2024 15:15";30
"12.04.2024 15:30";30
"12.04.2024 15:45";30
"12.04.2024 16:00";30
"12.04.2024 16:15";30
"12.04.2024 16:30";30
"12.04.2024 16:45";30
"12.04.2024 17:00";30
"12.04.2024 17:15";30
"12.04.2024 17:30";30
"12.04.2024 17:45";30
"12.04.2024 18:00";30
"12.04.2024 18:15";30
"12.04.2024 18:30";30
"12.04.2024 18:45";30
"12.04.2024 19:00";30
"12.04.2024 19:15";30
"12.04.2024 19:30";30
"12.04.2024 19:45";30
"12.04.2024 20:00";30
"12.04.2024 20:15";30
"12.04.2024 20:30";30
"12.04.2024 20:45";30
"12.04.2024 21:00";30
"12.04.2024 21:15";30
"12.04.2024 21:30";30
"12.04.2024 21:45";30
"12.04.2024 22:00";30
"12.04.2024 22:15";30
"12.04.2024 22:30";30
"12.04.2024 22:45";30
"12.04.2024 23:00";30
"12.04.2024 23:15";30
"12.04.2024 23:30";30
"12.04.2024 23:45";30
"13.04.2024 00:00";30
"13.04.2024 00:15";30
"13.04.2024 00:30";30
"13.04.2024 00:45";30
"13.04.2024 01:00";30
"13.04.2024 01:15";30
"13.04.2024 01:30";30
"13.04.2024 01:45";30
"13.04.2024 02:00";29
"13.04.2024 02:15";30
"13.04.2024 02:30";29
"13.04.2024 02:45";29
"13.04.2024 03:00";29
"13.04.2024 03:15";29
"13.04.2024 03:30";29
"13.04.2024 03:45";29
"13.04.2024 04:00";29
"13.04.2024 04:15";29
"13.04.2024 04:30";29
"13.04.2024 04:45";29
"13.04.2024 05:00";29
"13.04.2024 05:15";29
"13.04.2024 05:30";29
"13.04.2024 05:45";29
"13.04.2024 06:00";29
"13.04.2024 06:15";29
"13.04.2024 06:30";29
"13.04.2024 06:45";29
"13.04.2024 07:00";29
"13.04.2024 07:15";29
"13.04.2024 07:30";29
"13.04.2024 07:45";29
"13.04.2024 08:00";30
"13.04.2024 08:15";29
"13.04.2024 08:30";30
"13.04.2024 08:45";30
"13.04.2024 09:00";30
"13.04.2024 09:15";29
"13.04.2024 09:30";30
"13.04.2024 09:45";30
"13.04.2024 10:00";30
"13.04.2024 10:15";30
"13.04.2024 10:30";30
"13.04.2024 10:45";30
"13.04.2024 11:00";30
"13.04.2024 11:15";30
"13.04.2024 11:30";30
"13.04.2024 11:45";30
"13.04.2024 12:00";30
"13.04.2024 12:15";30
"13.04.2024 12:30";30
"13.04.2024 12:45";30
"13.04.2024 13:00";30
"13.04.2024 13:15";30
"13.04.2024 13:30";30
"13.04.2024 13:45";30
"13.04.2024 14:00";30
"13.04.2024 14:15";30
"13.04.2024 14:30";30
"13.04.2024 14:45";30
"13.04.2024 15:00";30
"13.04.2024 15:15";30
"13.04.2024 15:30";30
"13.04.2024 15:45";30
"13.04.2024 16:00";30
"13.04.2024 16:15";30
"13.04.2024 16:30";30
"13.04.2024 16:45";30
"13.04.2024 17:00";30
"13.04.2024 17:15";30
"13.04.2024 17:30";30
"13.04.2024 17:45";30
"13.04.2024 18:00";30
"13.04.2024 18:15";30
"13.04.2024 18:30";30
"13.04.2024 18:45";30
"13.04.2024 19:00";30
"13.04.2024 19:15";30
"13.04.2024 19:30";30
"13.04.2024 19:45";30
"13.04.2024 20:00";30
"13.04.2024 20:15";30
"13.04.2024 20:30";30
"13.04.2024 20:45";30
"13.04.2024 21:00";30
"13.04.2024 21:15";30
"13.04.2024 21:30";30
"13.04.2024 21:45";30
"13.04.2024 22:00";30
"13.04.2024 22:15";30
"13.04.2024 22:30";30
"13.04.2024 22:45";30
"13.04.2024 23:00";30
"13.04.2024 23:15";30
"13.04.2024 23:30";30
"13.04.2024 23:45";29
"14.04.2024 00:00";29
"14.04.2024 00:15";30
"14.04.2024 00:30";30
"14.04.2024 00:45";30
"14.04.2024 01:00";30
"14.04.2024 01:15";30
"14.04.2024 01:30";30
"14.04.2024 01:45";30
"14.04.2024 02:00";30
"14.04.2024 02:15";30
"14.04.2024 02:30";30
"14.04.2024 02:45";30
"14.04.2024 03:00";30
"14.04.2024 03:15";30
"14.04.2024 03:30";30
"14.04.2024 03:45";30
"14.04.2024 04:00";30
"14.04.2024 04:15";30
"14.04.2024 04:30";30
"14.04.2024 04:45";30
"14.04.2024 05:00";30
"14.04.2024 05:15";30
"14.04.2024 05:30";30
"14.04.2024 05:45";30
"14.04.2024 06:00";30
"14.04.2024 06:15";30
"14.04.2024 06:30";30
"14.04.2024 06:45";30